Wisconsin Dells, Wisconsin, United States (53965)
Lat: 43.63N, Lon: 89.77W
Wx Zone: WIZ057
Local Info
Past Weather Observations for Saturday, August 20, 2016

NOTE: This archive is for the closest National Weather Service station to Wisconsin Dells. Information may differ from the station used for current weather conditions.

Click here for Long-term Archive

Time Weather Temperature Dewpoint Humidity Pressure Winds Precip Visibility
23:50
Clear
57°F / 14°C 54°F / 12°C 88% 29.77 in
(1008 mb)
SSW 4.6 mph
(SSW 7 kph)
- 10SM
23:30
Clear
57°F / 14°C 54°F / 12°C 88% 29.74 in
(1007 mb)
SSW 5.8 mph
(SSW 9 kph)
- 10SM
23:10
Clear
57°F / 14°C 54°F / 12°C 88% 29.74 in
(1007 mb)
W 4.6 mph
(W 7 kph)
- 10SM
22:50
Clear
57°F / 14°C 54°F / 12°C 88% 29.74 in
(1007 mb)
W 5.8 mph
(W 9 kph)
- 10SM
22:30
Clear
59°F / 15°C 54°F / 12°C 82% 29.74 in
(1007 mb)
SSW 6.9 mph
(SSW 11 kph)
- 10SM
22:10
Clear
59°F / 15°C 54°F / 12°C 82% 29.74 in
(1007 mb)
W 5.8 mph
(W 9 kph)
- 10SM
21:50
Clear
59°F / 15°C 55°F / 13°C 88% 29.74 in
(1007 mb)
W 6.9 mph
(W 11 kph)
- 10SM
21:30
Clear
59°F / 15°C 55°F / 13°C 88% 29.74 in
(1007 mb)
W 6.9 mph
(W 11 kph)
- 10SM
21:10
Clear
59°F / 15°C 55°F / 13°C 88% 29.74 in
(1007 mb)
SSW 5.8 mph
(SSW 9 kph)
- 10SM
20:50
Clear
59°F / 15°C 55°F / 13°C 88% 29.74 in
(1007 mb)
SSW 3.5 mph
(SSW 6 kph)
- 10SM
20:30
Clear
61°F / 16°C 55°F / 13°C 83% 29.71 in
(1006 mb)
SSW 4.6 mph
(SSW 7 kph)
- 10SM
20:10
Clear
61°F / 16°C 55°F / 13°C 83% 29.74 in
(1007 mb)
W 5.8 mph
(W 9 kph)
- 10SM
19:50
Partly Cloudy
61°F / 16°C 55°F / 13°C 83% 29.71 in
(1006 mb)
W 5.8 mph
(W 9 kph)
- 10SM
19:30
Mostly Cloudy
63°F / 17°C 55°F / 13°C 77% 29.71 in
(1006 mb)
W 4.6 mph
(W 7 kph)
- 10SM
19:10
Partly Cloudy
63°F / 17°C 55°F / 13°C 77% 29.71 in
(1006 mb)
W 4.6 mph
(W 7 kph)
- 10SM
18:50
Partly Cloudy
63°F / 17°C 55°F / 13°C 77% 29.68 in
(1005 mb)
W 5.8 mph
(W 9 kph)
- 10SM
18:30
Partly Cloudy
64°F / 18°C 55°F / 13°C 73% 29.68 in
(1005 mb)
NW 9.2 mph
(NW 15 kph)
- 10SM
18:10
Clear
64°F / 18°C 55°F / 13°C 73% 29.68 in
(1005 mb)
WNW 8.1 mph
(WNW 13 kph)
- 10SM
17:50
Partly Cloudy
66°F / 19°C 55°F / 13°C 68% 29.68 in
(1005 mb)
WNW 13.8 mph
(WNW 22 kph)
- 10SM
17:30
Partly Cloudy
68°F / 20°C 55°F / 13°C 64% 29.68 in
(1005 mb)
WNW 16.1 mph
(WNW 26 kph)
- 10SM
17:10
Mostly Cloudy
68°F / 20°C 55°F / 13°C 64% 29.68 in
(1005 mb)
WNW 15 mph
(WNW 24 kph)
- 10SM
16:50
Partly Cloudy
66°F / 19°C 57°F / 14°C 73% 29.68 in
(1005 mb)
WNW 9.2 mph
(WNW 15 kph)
- 10SM
16:30
Partly Cloudy
68°F / 20°C 57°F / 14°C 69% 29.68 in
(1005 mb)
NW 18.4 mph
(NW 30 kph)
- 10SM
16:10
Overcast
66°F / 19°C 57°F / 14°C 73% 29.68 in
(1005 mb)
NW 12.7 mph
(NW 20 kph)
- 10SM
15:50
Overcast
70°F / 21°C 57°F / 14°C 64% 29.65 in
(1004 mb)
NW 12.7 mph
(NW 20 kph)
- 10SM
15:30
Overcast
68°F / 20°C 57°F / 14°C 69% 29.65 in
(1004 mb)
W 16.1 mph
(W 26 kph)
- 10SM
15:10
Mostly Cloudy
70°F / 21°C 57°F / 14°C 64% 29.65 in
(1004 mb)
NW 15 mph
(NW 24 kph)
- 10SM
14:50
Mostly Cloudy
70°F / 21°C 57°F / 14°C 64% 29.65 in
(1004 mb)
WNW 17.3 mph
(WNW 28 kph)
- 10SM
14:30
Overcast
70°F / 21°C 59°F / 15°C 69% 29.65 in
(1004 mb)
NW 17.3 mph
(NW 28 kph)
- 10SM
14:10
Overcast
66°F / 19°C 59°F / 15°C 78% 29.65 in
(1004 mb)
WNW 10.4 mph
(WNW 17 kph)
- 10SM
13:50
Overcast
68°F / 20°C 61°F / 16°C 78% 29.65 in
(1004 mb)
NW 11.5 mph
(NW 19 kph)
- 10SM
13:30
Overcast
64°F / 18°C 59°F / 15°C 83% 29.65 in
(1004 mb)
WNW 11.5 mph
(WNW 19 kph)
- 10SM
13:10
Overcast
64°F / 18°C 59°F / 15°C 83% 29.65 in
(1004 mb)
WNW 9.2 mph
(WNW 15 kph)
- 10SM
12:50
Overcast
63°F / 17°C 59°F / 15°C 88% 29.65 in
(1004 mb)
WNW 11.5 mph
(WNW 19 kph)
- 10SM
12:30
Overcast
63°F / 17°C 61°F / 16°C 94% 29.62 in
(1003 mb)
WNW 13.8 mph
(WNW 22 kph)
- 10SM
12:10
Overcast
64°F / 18°C 61°F / 16°C 88% 29.62 in
(1003 mb)
WNW 13.8 mph
(WNW 22 kph)
- 10SM
11:50
Overcast
66°F / 19°C 63°F / 17°C 88% 29.62 in
(1003 mb)
NW 10.4 mph
(NW 17 kph)
0.01 in
(0.25 mm)
10SM
11:30
Overcast
Rain
66°F / 19°C 64°F / 18°C 94% 29.62 in
(1003 mb)
WNW 10.4 mph
(WNW 17 kph)
- 10SM
11:10
Overcast
Light Rain
68°F / 20°C 64°F / 18°C 88% 29.62 in
(1003 mb)
W 11.5 mph
(W 19 kph)
- 10SM
10:50
Overcast
Rain
68°F / 20°C 63°F / 17°C 83% 29.59 in
(1002 mb)
W 12.7 mph
(W 20 kph)
- 7SM
10:30
Mostly Cloudy
72°F / 22°C 66°F / 19°C 83% 29.59 in
(1002 mb)
SSW 10.4 mph
(SSW 17 kph)
- 10SM
10:10
Mostly Cloudy
72°F / 22°C 66°F / 19°C 83% 29.59 in
(1002 mb)
SSW 11.5 mph
(SSW 19 kph)
- 10SM
09:50
Overcast
72°F / 22°C 68°F / 20°C 88% 29.62 in
(1003 mb)
SSW 8.1 mph
(SSW 13 kph)
- 10SM
09:30
Overcast
68°F / 20°C 66°F / 19°C 94% 29.62 in
(1003 mb)
W 6.9 mph
(W 11 kph)
- 10SM
09:10
Overcast
68°F / 20°C 66°F / 19°C 94% 29.62 in
(1003 mb)
W 8.1 mph
(W 13 kph)
- 10SM
08:50
Overcast
68°F / 20°C 66°F / 19°C 94% 29.62 in
(1003 mb)
SSW 5.8 mph
(SSW 9 kph)
- 10SM
08:30
Overcast
Fog And Mist
68°F / 20°C 66°F / 19°C 94% 29.62 in
(1003 mb)
W 5.8 mph
(W 9 kph)
- 3SM
08:10
Overcast
Fog And Mist
68°F / 20°C 66°F / 19°C 94% 29.62 in
(1003 mb)
W 8.1 mph
(W 13 kph)
- 3SM
07:50
Overcast
68°F / 20°C 66°F / 19°C 94% 29.62 in
(1003 mb)
W 5.8 mph
(W 9 kph)
- 7SM
07:30
Overcast
Drizzle
68°F / 20°C 66°F / 19°C 94% 29.62 in
(1003 mb)
SSE 3.5 mph
(SSE 6 kph)
- 5SM
07:10
Overcast
Fog And Mist
66°F / 19°C 66°F / 19°C 100% 29.62 in
(1003 mb)
Calm - 5SM
06:50
Overcast
Fog And Mist
66°F / 19°C 64°F / 18°C 94% 29.65 in
(1004 mb)
Calm 0.01 in
(0.25 mm)
4SM
06:30
Overcast
Drizzle
66°F / 19°C 64°F / 18°C 94% 29.65 in
(1004 mb)
Calm - 5SM
06:10
Overcast
Light Rain
66°F / 19°C 64°F / 18°C 94% 29.65 in
(1004 mb)
Calm - 4SM
05:50
Overcast
Light Rain
66°F / 19°C 64°F / 18°C 94% 29.65 in
(1004 mb)
Calm 0.02 in
(0.51 mm)
5SM
05:30
Overcast
Light Rain
66°F / 19°C 64°F / 18°C 94% 29.68 in
(1005 mb)
Calm 0.01 in
(0.25 mm)
5SM
05:10
Overcast
Rain
66°F / 19°C 64°F / 18°C 94% 29.68 in
(1005 mb)
Calm - 10SM
04:50
Overcast
Drizzle
66°F / 19°C 64°F / 18°C 94% 29.68 in
(1005 mb)
Calm - 10SM
04:30
Overcast
Light Rain
66°F / 19°C 64°F / 18°C 94% 29.68 in
(1005 mb)
NW 4.6 mph
(NW 7 kph)
- 10SM
04:10
Fair
66°F / 19°C 63°F / 17°C 88% 29.71 in
(1006 mb)
WNW 8.1 mph
(WNW 13 kph)
- 10SM
03:50
Mostly Cloudy
64°F / 18°C 63°F / 17°C 94% 29.68 in
(1005 mb)
Calm - 10SM
03:30
Clear
64°F / 18°C 63°F / 17°C 94% 29.71 in
(1006 mb)
Calm - 10SM
03:10
Clear
64°F / 18°C 64°F / 18°C 100% 29.71 in
(1006 mb)
ESE 6.9 mph
(ESE 11 kph)
- 10SM
02:50
Partly Cloudy
64°F / 18°C 64°F / 18°C 100% 29.71 in
(1006 mb)
ESE 4.6 mph
(ESE 7 kph)
- 10SM
02:30
Fair
64°F / 18°C 64°F / 18°C 100% 29.74 in
(1007 mb)
SE 5.8 mph
(SE 9 kph)
-
02:10
Mostly Cloudy
66°F / 19°C 64°F / 18°C 94% 29.74 in
(1007 mb)
E 4.6 mph
(E 7 kph)
- 10SM
01:50
Overcast
66°F / 19°C 64°F / 18°C 94% 29.74 in
(1007 mb)
ESE 6.9 mph
(ESE 11 kph)
0.01 in
(0.25 mm)
10SM
01:30
Overcast
Thunder Storms
66°F / 19°C 64°F / 18°C 94% 29.77 in
(1008 mb)
ESE 6.9 mph
(ESE 11 kph)
0.01 in
(0.25 mm)
10SM
01:10
Overcast
66°F / 19°C 64°F / 18°C 94% 29.77 in
(1008 mb)
E 5.8 mph
(E 9 kph)
0.01 in
(0.25 mm)
7SM
00:50
Overcast
Thunder Storms
66°F / 19°C 64°F / 18°C 94% 29.8 in
(1009 mb)
SSE 5.8 mph
(SSE 9 kph)
0.25 in
(6.35 mm)
1 1/2SM
00:30
Overcast
Light Rain
66°F / 19°C 64°F / 18°C 94% 29.83 in
(1010 mb)
SSE 4.6 mph
(SSE 7 kph)
0.07 in
(1.78 mm)
2 1/2SM
00:10
Overcast
66°F / 19°C 64°F / 18°C 94% 29.8 in
(1009 mb)
W 3.5 mph
(W 6 kph)
- 10SM
Time Weather Temperature Dewpoint Humidity Pressure Winds Precip Visibility


Weather for websites

WeatherForYou.com, LLC is not responsible for any damages or problems caused by this service. Current weather conditions are obtained from the closest station including government and personal stations which may have varying degrees of accuracy. Weather forecasts are derived from the NOAA NDFD. Like all things, this site belongs to Jesus Christ... He just trusts us to maintain it. If you have any questions or comments email webmaster@weatherforyou.com

Copyright © 2016, WeatherForYou.com LLC. All rights reserved.